GW3148 Weather Reports


Display with metric or nautical units.
time (UTC)temp
F
wind
direction
speed
MPH
gust
MPH
rain 1hr
in
rain 24hr
in
rain mn
in
humidity
%
barometer
mb
20260507150209 61 113 5.0 11.0 0.22 0.32 0.32 89 1009.4
20260507145709 61 68 5.0 9.0 0.24 0.32 0.32 89 1009.2
20260507145209 60 90 5.0 9.0 0.25 0.32 0.32 88 1009.3
20260507144709 60 90 6.0 8.0 0.24 0.31 0.31 89 1009.3
20260507144209 60 68 4.0 7.0 0.24 0.31 0.31 89 1009.4
20260507143709 60 68 4.0 7.0 0.24 0.31 0.31 89 1009.5
20260507143209 60 23 0.0 7.0 0.22 0.30 0.30 89 1009.8
20260507142709 60 293 2.0 4.0 0.19 0.26 0.26 89 1009.8
20260507142209 61 270 2.0 4.0 0.15 0.22 0.22 88 1009.7
20260507141709 61 293 2.0 2.0 0.14 0.21 0.21 88 1009.8
20260507141209 61 270 2.0 7.0 0.09 0.17 0.17 87 1009.9
20260507140709 62 270 1.0 8.0 0.05 0.12 0.12 86 1009.8
20260507135709 62 113 1.0 11.0 0.00 0.07 0.07 84 1009.6
20260507135209 62 45 4.0 11.0 0.00 0.07 0.07 83 1009.4
20260507134709 63 45 2.0 11.0 0.00 0.07 0.07 83 1009.4
20260507134209 63 23 3.0 14.0 0.00 0.07 0.07 83 1009.4
20260507133709 64 45 5.0 14.0 0.00 0.07 0.07 82 1009.4
20260507132710 64 68 7.0 13.0 0.00 0.07 0.07 81 1009.5
20260507132209 63 23 5.0 9.0 0.00 0.07 0.07 82 1009.6
20260507131709 65 0 6.0 9.0 0.00 0.07 0.07 81 1009.7
20260507130709 63 0 6.0 11.0 0.00 0.07 0.07 79 1009.7
20260507130209 63 0 4.0 11.0 0.00 0.07 0.07 82 1009.9
20260507125709 61 23 6.0 8.0 0.00 0.07 0.07 84 1009.8
20260507125209 62 45 3.0 8.0 0.04 0.07 0.07 86 1010.0
20260507124709 62 23 3.0 8.0 0.07 0.07 0.07 87 1009.9
20260507124209 62 23 3.0 8.0 0.07 0.07 0.07 87 1010.1
20260507123709 62 23 4.0 8.0 0.07 0.07 0.07 88 1009.9
20260507122709 61 338 4.0 6.0 0.07 0.07 0.07 88 1010.2
20260507121709 62 338 4.0 11.0 0.07 0.07 0.07 88 1010.4
20260507121209 62 0 2.0 11.0 0.07 0.07 0.07 88 1010.4
20260507120709 61 338 5.0 11.0 0.07 0.07 0.07 87 1010.4
20260507120209 62 338 5.0 11.0 0.07 0.07 0.07 86 1010.2
20260507115709 62 338 5.0 11.0 0.06 0.06 0.06 84 1010.5
20260507115209 62 23 3.0 11.0 0.00 0.00 0.00 81 1010.4
20260507114709 63 45 5.0 11.0 0.00 0.00 0.00 78 1010.5
20260507114209 63 45 8.0 17.0 0.00 0.00 0.00 76 1010.5
20260507112709 64 23 11.0 15.0 0.00 0.00 0.00 76 1010.7
20260507112209 64 338 10.0 14.0 0.00 0.00 0.00 75 1010.2
20260507111709 64 338 8.0 14.0 0.00 0.00 0.00 77 1010.6
20260507111209 65 0 8.0 11.0 0.00 0.00 0.00 77 1010.5
20260507110209 67 270 4.0 9.0 0.00 0.00 0.00 72 1010.4
20260507105709 68 225 4.0 9.0 0.00 0.00 0.00 72 1010.3
20260507105209 69 68 4.0 11.0 0.00 0.00 0.00 75 1010.4
20260507103709 68 113 5.0 11.0 0.00 0.00 0.00 78 1010.7
20260507102709 67 68 4.0 11.0 0.00 0.00 0.00 81 1010.6
20260507102209 66 113 5.0 9.0 0.00 0.00 0.00 81 1010.6
20260507101710 66 135 4.0 11.0 0.00 0.00 0.00 80 1010.6
20260507101209 66 135 4.0 14.0 0.00 0.00 0.00 79 1010.5
20260507100710 67 68 4.0 14.0 0.00 0.00 0.00 79 1010.5
20260507100209 67 113 5.0 14.0 0.00 0.00 0.00 79 1010.5
20260507095209 67 158 4.0 11.0 0.00 0.00 0.00 78 1010.4
20260507094709 67 113 3.0 11.0 0.00 0.00 0.00 79 1010.4
20260507094209 66 113 6.0 13.0 0.00 0.00 0.00 77 1010.4
20260507093709 65 90 4.0 14.0 0.00 0.00 0.00 77 1010.5
20260507093209 65 90 8.0 14.0 0.00 0.00 0.00 78 1010.6
20260507092709 65 68 7.0 11.0 0.00 0.00 0.00 80 1010.7
20260507092209 66 68 3.0 11.0 0.00 0.00 0.00 79 1010.5
20260507091709 66 68 8.0 14.0 0.00 0.00 0.00 78 1010.5
20260507091209 67 68 6.0 14.0 0.00 0.00 0.00 78 1010.5
20260507090709 67 113 7.0 11.0 0.00 0.00 0.00 76 1010.6
20260507090209 68 90 5.0 11.0 0.00 0.00 0.00 75 1010.3
20260507085709 67 113 6.0 11.0 0.00 0.00 0.00 78 1010.4
20260507085209 67 135 6.0 11.0 0.00 0.00 0.00 78 1010.6
20260507084709 67 90 6.0 11.0 0.00 0.00 0.00 79 1010.3
20260507084209 67 113 6.0 11.0 0.00 0.00 0.00 79 1010.3
20260507083209 67 90 4.0 13.0 0.00 0.00 0.00 79 1010.5
20260507082709 67 90 6.0 13.0 0.00 0.00 0.00 79 1010.6
20260507082210 67 90 6.0 11.0 0.00 0.00 0.00 80 1010.5
20260507081209 67 90 5.0 11.0 0.00 0.00 0.00 79 1010.2
20260507080210 67 68 5.0 11.0 0.00 0.00 0.00 79 1010.3
20260507075709 67 68 5.0 11.0 0.00 0.00 0.00 80 1010.4
20260507075209 66 113 5.0 11.0 0.00 0.00 0.00 80 1010.7
20260507074709 66 113 7.0 11.0 0.00 0.00 0.00 80 1010.5
20260507074210 66 113 6.0 11.0 0.00 0.00 0.00 79 1010.4
20260507073209 66 90 5.0 11.0 0.00 0.00 0.00 79 1010.4
20260507072709 66 90 7.0 11.0 0.00 0.00 0.00 79 1010.3
20260507072209 66 90 4.0 9.0 0.00 0.00 0.00 79 1010.4
20260507071709 66 90 4.0 9.0 0.00 0.00 0.00 79 1010.3
20260507071209 66 90 3.0 11.0 0.00 0.00 0.00 80 1010.4
20260507070210 66 68 4.0 14.0 0.00 0.00 0.00 80 1010.4
20260507065710 66 113 4.0 14.0 0.00 0.00 0.00 80 1009.9
20260507065209 66 68 4.0 14.0 0.00 0.00 0.00 80 1010.0
20260507064209 66 68 6.0 11.0 0.00 0.00 0.00 80 1009.5
20260507063709 65 68 8.0 13.0 0.00 0.00 0.00 80 1009.8
20260507063209 65 90 8.0 13.0 0.00 0.00 0.00 81 1009.9
20260507062710 65 90 4.0 13.0 0.00 0.00 0.00 81 1010.1
20260507062209 65 45 7.0 11.0 0.00 0.00 0.00 81 1009.9
20260507061710 66 90 6.0 11.0 0.00 0.00 0.00 81 1009.7
20260507061209 65 68 5.0 11.0 0.00 0.00 0.00 81 1009.5
20260507060709 65 68 6.0 11.0 0.00 0.00 0.00 81 1009.7
20260507060209 65 113 5.0 11.0 0.00 0.00 0.00 81 1009.5
20260507055710 65 90 5.0 8.0 0.00 0.00 0.00 81 1009.4
20260507055209 65 68 4.0 0.0 0.00 0.00 0.00 82 1009.7
20260507053210 65 68 6.0 9.0 0.00 0.00 0.00 82 1009.6
20260507052710 65 68 6.0 11.0 0.00 0.00 0.00 82 1009.7
20260507052210 65 68 6.0 11.0 0.00 0.00 0.00 82 1009.5
20260507051709 65 90 5.0 11.0 0.00 0.00 0.00 82 1009.5
20260507050710 65 68 4.0 9.0 0.00 0.00 0.00 81 1009.4
20260507050210 65 68 4.0 11.0 0.00 0.00 0.00 81 1009.4
20260507045709 65 113 4.0 11.0 0.00 0.00 0.00 81 1009.2
20260507045209 65 45 6.0 11.0 0.00 0.00 0.00 81 1009.3
20260507044710 65 90 4.0 11.0 0.00 0.00 0.00 82 1009.0
20260507044210 65 45 6.0 11.0 0.00 0.00 0.00 82 1009.1
20260507043710 65 68 6.0 9.0 0.00 0.00 0.00 82 1009.0
20260507043209 65 90 5.0 9.0 0.00 0.00 0.00 81 1009.2
20260507042710 64 113 3.0 11.0 0.00 0.00 0.00 81 1009.1
20260507042209 65 90 6.0 11.0 0.00 0.00 0.00 81 1008.9
20260507041210 65 90 4.0 11.0 0.00 0.00 0.00 80 1009.2
20260507040709 65 45 5.0 11.0 0.00 0.00 0.00 80 1009.2
20260507040210 65 90 6.0 11.0 0.00 0.00 0.00 80 1009.0
20260507035709 65 68 8.0 9.0 0.00 0.00 0.00 80 1009.2
20260507035210 65 90 7.0 11.0 0.00 0.00 0.00 81 1009.3
20260507034710 65 68 6.0 11.0 0.00 0.00 0.00 81 1009.5
20260507034209 65 90 4.0 11.0 0.00 0.00 0.00 80 1009.3
20260507033710 65 68 4.0 11.0 0.00 0.00 0.00 80 1009.5
20260507033209 65 68 8.0 11.0 0.00 0.00 0.00 80 1009.1
20260507032710 65 68 7.0 11.0 0.00 0.00 0.00 80 1009.2
20260507032210 64 90 8.0 11.0 0.00 0.00 0.00 80 1008.9
20260507031209 65 90 6.0 9.0 0.00 0.00 0.00 80 1009.0
20260507030709 65 90 7.0 9.0 0.00 0.00 0.00 80 1009.1
20260507025709 65 90 4.0 11.0 0.00 0.00 0.00 80 1009.3
20260507025209 65 113 6.0 11.0 0.00 0.00 0.00 79 1009.3
20260507024710 65 68 7.0 11.0 0.00 0.00 0.00 79 1009.2
20260507024209 65 45 4.0 11.0 0.00 0.00 0.00 80 1009.5
20260507023709 65 68 6.0 11.0 0.00 0.00 0.00 80 1009.4
20260507023209 65 68 6.0 9.0 0.00 0.00 0.00 80 1009.5
20260507022709 65 45 6.0 8.0 0.00 0.00 0.00 80 1009.4
20260507021709 65 68 4.0 9.0 0.00 0.00 0.00 80 1009.8
20260507021209 65 68 4.0 11.0 0.00 0.00 0.00 80 1009.6
20260507020709 65 68 4.0 11.0 0.00 0.00 0.00 79 1009.7
20260507015210 65 68 5.0 0.0 0.00 0.00 0.00 80 1009.6
20260507011710 65 68 4.0 8.0 0.00 0.00 0.00 79 1010.3
20260507011210 65 68 4.0 8.0 0.00 0.00 0.00 79 1010.2
20260507010710 65 68 4.0 8.0 0.00 0.00 0.00 79 1010.2
20260507010210 65 68 4.0 8.0 0.00 0.00 0.00 78 1010.3
20260507005710 65 90 4.0 9.0 0.00 0.00 0.00 78 1010.4
20260507005209 65 68 4.0 9.0 0.00 0.00 0.00 79 1010.5
20260507004709 65 90 5.0 9.0 0.00 0.00 0.00 80 1010.2
20260507004209 65 45 4.0 9.0 0.00 0.00 0.00 80 1010.3
20260507003709 65 45 5.0 9.0 0.00 0.00 0.00 80 1010.2
20260507003209 65 68 5.0 9.0 0.00 0.00 0.00 80 1010.2
20260507002209 65 68 5.0 7.0 0.00 0.00 0.00 80 1009.9
20260507001209 64 68 4.0 6.0 0.00 0.00 0.00 81 1010.2
20260507000710 64 45 4.0 6.0 0.00 0.00 0.00 81 1010.2
20260506235710 64 45 2.0 4.0 0.00 0.00 0.00 81 1010.0
20260506235209 64 68 3.0 0.0 0.00 0.00 0.00 82 1010.2
20260506231209 60 270 0.0 0.0 0.00 0.00 0.00 82 1010.4
20260506230709 60 270 0.0 2.0 0.00 0.00 0.00 82 1010.4
20260506230210 60 270 0.0 2.0 0.00 0.00 0.00 82 1010.5
20260506225709 60 270 0.0 2.0 0.00 0.00 0.00 82 1010.7
20260506225209 62 180 0.0 2.0 0.00 0.00 0.00 81 1010.7
20260506224709 62 180 0.0 2.0 0.00 0.00 0.00 81 1010.5
20260506224209 62 180 1.0 2.0 0.00 0.00 0.00 81 1010.6
20260506223709 62 203 1.0 2.0 0.00 0.00 0.00 81 1010.5
20260506223210 62 180 1.0 2.0 0.00 0.00 0.00 81 1010.3
20260506222709 62 158 1.0 2.0 0.00 0.00 0.00 81 1010.6
20260506222209 63 135 0.0 2.0 0.00 0.00 0.00 81 1010.3
20260506221709 63 158 0.0 2.0 0.00 0.00 0.00 81 1010.4
20260506220709 63 158 0.0 2.0 0.00 0.00 0.00 80 1010.5
20260506220209 63 135 0.0 2.0 0.00 0.00 0.00 80 1010.3
20260506215709 63 113 1.0 2.0 0.00 0.00 0.00 80 1010.5
20260506215209 63 90 0.0 2.0 0.00 0.00 0.00 79 1010.6
20260506214709 63 113 1.0 2.0 0.00 0.00 0.00 79 1010.7
20260506214209 63 90 1.0 2.0 0.00 0.00 0.00 79 1010.7
20260506213709 63 113 0.0 2.0 0.00 0.00 0.00 79 1010.9
20260506212709 62 203 0.0 2.0 0.00 0.00 0.00 79 1011.0
20260506211709 63 225 1.0 2.0 0.00 0.00 0.00 79 1011.4
20260506211209 63 158 0.0 2.0 0.00 0.00 0.00 79 1011.1
20260506210710 63 158 0.0 2.0 0.00 0.00 0.00 78 1010.9
20260506205710 63 135 1.0 4.0 0.00 0.00 0.00 78 1010.9
20260506204710 63 113 0.0 2.0 0.00 0.00 0.00 78 1010.9
20260506204210 63 158 1.0 2.0 0.00 0.00 0.00 79 1010.8
20260506203710 63 158 0.0 2.0 0.00 0.00 0.00 79 1010.8
20260506203209 63 135 1.0 2.0 0.00 0.00 0.00 78 1010.8
20260506202709 63 135 1.0 4.0 0.00 0.00 0.00 78 1010.8
20260506201710 64 135 1.0 4.0 0.00 0.00 0.00 78 1010.8
20260506201210 64 135 2.0 4.0 0.00 0.00 0.00 78 1010.6
20260506200710 64 135 2.0 6.0 0.00 0.00 0.00 77 1010.7
20260506200209 64 90 0.0 6.0 0.00 0.00 0.00 77 1010.5
20260506195709 64 158 2.0 6.0 0.00 0.00 0.00 77 1010.2
20260506195209 64 113 2.0 4.0 0.00 0.00 0.00 78 1010.2
20260506194210 64 135 2.0 4.0 0.00 0.00 0.00 78 1010.2
20260506193710 64 90 2.0 7.0 0.00 0.00 0.00 77 1010.3
20260506193209 64 90 2.0 7.0 0.00 0.00 0.00 78 1010.1
20260506192210 64 135 1.0 6.0 0.00 0.00 0.00 77 1009.9
20260506191710 64 113 2.0 8.0 0.00 0.00 0.00 78 1009.7
20260506191210 64 135 2.0 8.0 0.00 0.00 0.00 77 1009.7
20260506190710 64 90 2.0 8.0 0.00 0.00 0.00 77 1009.8
20260506185710 64 90 2.0 9.0 0.00 0.00 0.00 77 1010.0
20260506185209 65 135 4.0 9.0 0.00 0.00 0.00 76 1009.9
20260506184709 65 90 2.0 9.0 0.00 0.00 0.00 76 1009.5
20260506184209 65 90 5.0 8.0 0.00 0.00 0.00 76 1009.8
20260506183709 65 113 3.0 11.0 0.00 0.00 0.00 76 1009.6
20260506183209 65 68 3.0 11.0 0.00 0.00 0.00 75 1009.5
20260506182709 65 113 2.0 11.0 0.00 0.00 0.00 75 1009.3
20260506181710 65 90 5.0 8.0 0.00 0.00 0.00 75 1009.4
20260506180210 66 113 3.0 11.0 0.00 0.00 0.00 75 1009.4
20260506175710 66 68 7.0 11.0 0.00 0.00 0.00 75 1009.4
20260506175210 66 113 3.0 9.0 0.00 0.00 0.00 75 1009.2
20260506174210 66 90 4.0 11.0 0.00 0.00 0.00 75 1009.3
20260506173709 66 135 5.0 11.0 0.00 0.00 0.00 75 1009.3
20260506173209 66 113 6.0 11.0 0.00 0.00 0.00 74 1009.4
20260506172709 66 90 5.0 11.0 0.00 0.00 0.00 74 1009.5
20260506171709 66 90 4.0 11.0 0.00 0.00 0.00 75 1009.2
20260506171210 66 90 4.0 11.0 0.00 0.00 0.00 75 1009.2
20260506170709 66 90 8.0 14.0 0.00 0.00 0.00 75 1009.2
20260506165709 66 113 7.0 14.0 0.00 0.00 0.00 75 1009.5
20260506165209 67 90 6.0 14.0 0.00 0.00 0.00 75 1009.4
20260506164709 67 90 8.0 14.0 0.00 0.00 0.00 75 1009.4
20260506164209 67 90 6.0 14.0 0.00 0.00 0.00 74 1009.3
20260506163709 66 90 8.0 14.0 0.00 0.00 0.00 74 1009.2
20260506163209 67 68 7.0 14.0 0.00 0.00 0.00 74 1009.3
20260506162210 67 68 8.0 14.0 0.00 0.00 0.00 73 1009.5
20260506161709 67 90 8.0 14.0 0.00 0.00 0.00 74 1009.3
20260506160710 67 68 8.0 15.0 0.00 0.00 0.00 73 1009.3
20260506160209 67 90 8.0 15.0 0.00 0.00 0.00 73 1009.3
20260506155709 67 135 8.0 15.0 0.00 0.00 0.00 74 1009.4
20260506155209 67 90 8.0 15.0 0.00 0.00 0.00 74 1009.6
20260506154709 67 90 9.0 15.0 0.00 0.00 0.00 75 1009.4
20260506154209 67 113 10.0 14.0 0.00 0.00 0.00 75 1009.4
20260506153709 67 68 7.0 14.0 0.00 0.00 0.00 75 1009.5
20260506153210 67 68 8.0 14.0 0.00 0.00 0.00 75 1009.5
20260506152710 67 90 8.0 14.0 0.00 0.00 0.00 74 1009.4
20260506152210 68 113 8.0 14.0 0.00 0.00 0.00 75 1009.6
20260506151710 67 90 7.0 15.0 0.00 0.00 0.00 74 1009.4
20260506151209 68 90 8.0 15.0 0.00 0.00 0.00 74 1009.4